Change the Weather History Date:

Tuesday, October 23, 2012

  Actual Average Record
Temperature  
Mean Temperature 48 °F -  
Max Temperature 50 °F - - ()
Min Temperature 46 °F - - ()
Degree Days  
Heating Degree Days 17    
Moisture  
Dew Point 48 °F    
Average Humidity 100    
Maximum Humidity 100    
Minimum Humidity 93    
Precipitation  
Precipitation 0.00 in - - ()
Sea Level Pressure  
Sea Level Pressure 30.28 in    
Wind  
Wind Speed 1 mph ()    
Max Wind Speed 2 mph    
Max Gust Speed -    
Visibility 1.1 miles    
Events Fog    
T = Trace of Precipitation, MM = Missing Value Source: Averaged Metar Reports

Daily Weather History Graph

Daily Weather History Graph

Search for Another Location

Airport or City:

Trip Planner

Search our weather history database for the weather conditions in past years. The results will help you decide how hot, cold, wet, or windy it might be!

Date:

Astronomy

Oct. 23, 2012 Rise Set
Actual Time 7:32 AM CEST 5:49 PM CEST
Civil Twilight 6:59 AM CEST 6:22 PM CEST
Nautical Twilight 6:21 AM CEST 7:00 PM CEST
Astronomical Twilight 5:43 AM CEST 7:37 PM CEST
Moon 2:55 PM CEST (10/23) 12:29 AM CEST (10/23)
Length of Visible Light 11h 23m
Length of Day
10h 17m
Waxing Gibbous, 64% of the Moon is Illuminated
Oct 23
Waxing Gibbous
Oct 29
Full
Nov 7
Last Quarter
Nov 13
New
Nov 20
First Quarter

Hourly Weather History & Observations

Time (CEST) Temp. Dew Point Humidity Pressure Visibility Wind Dir Wind Speed Gust Speed Precip Events Conditions
12:00 AM 50.0 °F 50.0 °F 100% 30.27 in 0.5 mi Variable 1.2 mph - N/A Fog Fog
1:00 AM 48.2 °F 48.2 °F 100% 30.27 in 0.5 mi Variable 1.2 mph - N/A Fog Fog
2:00 AM 48.2 °F 48.2 °F 100% 30.27 in 0.5 mi Variable 1.2 mph - N/A Fog Fog
3:00 AM 48.2 °F 48.2 °F 100% 30.27 in 0.3 mi Calm Calm - N/A Fog Fog
5:00 AM 46.4 °F 46.4 °F 100% 30.27 in 0.2 mi Calm Calm - N/A Fog Fog
6:00 AM 48.2 °F 48.2 °F 100% 30.27 in 0.4 mi Calm Calm - N/A Fog Fog
7:00 AM 48.2 °F 48.2 °F 100% 30.27 in 0.2 mi Variable 1.2 mph - N/A Fog Fog
8:00 AM 48.2 °F 48.2 °F 100% 30.27 in 0.3 mi Variable 2.3 mph - N/A Fog Drizzle
9:00 AM 46.4 °F 46.4 °F 100% 30.30 in 0.4 mi Variable 2.3 mph - N/A Fog Light Drizzle
10:00 AM 46.4 °F 46.4 °F 100% 30.30 in 0.4 mi Variable 1.2 mph - N/A Fog Drizzle
10:31 AM 46.4 °F 46.4 °F 100% 30.30 in 0.6 mi Variable 2.3 mph - N/A   Drizzle
11:15 AM 48.2 °F 48.2 °F 100% 30.30 in 1.2 mi Variable 2.3 mph - N/A   Drizzle
12:00 PM 48.2 °F 48.2 °F 100% 30.30 in 1.2 mi Calm Calm - N/A   Drizzle
1:00 PM 48.2 °F 48.2 °F 100% 30.30 in 1.2 mi Variable 2.3 mph - N/A   Light Drizzle
2:00 PM 46.4 °F 46.4 °F 100% 30.30 in 1.2 mi Calm Calm - N/A   Overcast
2:49 PM 46.4 °F 46.4 °F 100% 30.27 in 1.2 mi Calm Calm - N/A   Overcast
3:00 PM 48.2 °F 48.2 °F 100% 30.27 in 1.2 mi Variable 1.2 mph - N/A   Overcast
3:45 PM 48.2 °F 48.2 °F 100% 30.27 in 0.9 mi Variable 2.3 mph - N/A   Overcast
4:00 PM 48.2 °F 48.2 °F 100% 30.27 in 0.9 mi Variable 1.2 mph - N/A   Overcast
5:00 PM 48.2 °F 48.2 °F 100% 30.27 in 0.9 mi Calm Calm - N/A   Overcast
6:00 PM 48.2 °F 48.2 °F 100% 30.27 in 0.9 mi Variable 1.2 mph - N/A   Overcast
7:00 PM 48.2 °F 48.2 °F 100% 30.27 in 0.9 mi Calm Calm - N/A   Overcast
7:57 PM 48.2 °F 48.2 °F 100% 30.27 in 1.9 mi Calm Calm - N/A   Overcast
8:00 PM 48.2 °F 48.2 °F 100% 30.27 in 1.9 mi Calm Calm - N/A   Overcast
8:59 PM 48.2 °F 48.2 °F 100% 30.27 in 2.5 mi Calm Calm - N/A   Overcast
9:00 PM 48.2 °F 46.4 °F 93% 30.27 in 2.5 mi Calm Calm - N/A   Overcast
10:00 PM 48.2 °F 48.2 °F 100% 30.27 in 2.5 mi West 1.2 mph - N/A   Overcast
10:57 PM 48.2 °F 46.4 °F 93% 30.24 in 1.9 mi Variable 1.2 mph - N/A   Overcast
11:00 PM 48.2 °F 48.2 °F 100% 30.24 in 1.9 mi Variable 1.2 mph - N/A   Overcast